�������l�o���
Date,Time,MP-1(��Sv/h),MP-2(��Sv/h),MP-3(��Sv/h),MP-4(��Sv/h),MP-5(��Sv/h),MP-6(��Sv/h),MP-7(��Sv/h),MP-8(��Sv/h),����,����(m/s),���J
2023/08/30,00:00,0.556,0.842,0.513,1.050,0.762,0.329,0.589,0.542,�k��,2.0,��
2023/08/30,00:10,0.555,0.840,0.513,1.046,0.762,0.330,0.589,0.543,�k��,1.7,��
2023/08/30,00:20,0.554,0.841,0.515,1.046,0.763,0.331,0.589,0.542,�k��,2.0,��
2023/08/30,00:30,0.553,0.843,0.513,1.046,0.761,0.331,0.589,0.544,�k�k��,2.0,��
2023/08/30,00:40,0.555,0.841,0.512,1.048,0.760,0.331,0.591,0.544,�k�k��,1.7,��
2023/08/30,00:50,0.554,0.841,0.515,1.048,0.761,0.331,0.591,0.543,�k�k��,2.5,��
2023/08/30,01:00,0.555,0.842,0.513,1.043,0.761,0.331,0.588,0.543,�k�k��,2.3,��
2023/08/30,01:10,0.554,0.839,0.512,1.045,0.761,0.331,0.590,0.544,�k�k��,2.5,��
2023/08/30,01:20,0.555,0.841,0.512,1.045,0.762,0.332,0.590,0.543,�k�k��,2.5,��
2023/08/30,01:30,0.555,0.841,0.515,1.045,0.760,0.331,0.588,0.544,�k��,2.8,��
2023/08/30,01:40,0.557,0.841,0.513,1.048,0.762,0.331,0.590,0.544,�k�k��,2.8,��
2023/08/30,01:50,0.554,0.839,0.514,1.047,0.761,0.330,0.589,0.544,�k�k��,3.1,��
2023/08/30,02:00,0.554,0.838,0.514,1.045,0.761,0.330,0.589,0.543,�k,2.6,��
2023/08/30,02:10,0.556,0.842,0.513,1.047,0.761,0.330,0.590,0.544,�k,3.6,��
2023/08/30,02:20,0.556,0.844,0.514,1.047,0.763,0.332,0.590,0.545,�k,3.0,��
2023/08/30,02:30,0.556,0.841,0.510,1.050,0.760,0.330,0.588,0.543,�k�k��,2.8,��
2023/08/30,02:40,0.556,0.841,0.513,1.048,0.763,0.331,0.589,0.544,�k,2.0,��
2023/08/30,02:50,0.554,0.840,0.513,1.045,0.763,0.331,0.589,0.544,�k�k��,0.9,��
2023/08/30,03:00,0.557,0.842,0.514,1.047,0.763,0.330,0.588,0.543,�k��,0.8,��
2023/08/30,03:10,0.556,0.841,0.514,1.047,0.762,0.331,0.590,0.543,�k�k��,0.8,��
2023/08/30,03:20,0.554,0.842,0.512,1.047,0.762,0.332,0.589,0.545,-,CALM,��
2023/08/30,03:30,0.557,0.842,0.516,1.048,0.763,0.331,0.589,0.542,���k��,0.6,��
2023/08/30,03:40,0.555,0.840,0.514,1.049,0.762,0.332,0.590,0.544,�쐼,0.9,��
2023/08/30,03:50,0.556,0.841,0.512,1.049,0.764,0.332,0.589,0.545,��,1.1,��
2023/08/30,04:00,0.555,0.840,0.513,1.050,0.763,0.330,0.589,0.545,�쐼,0.9,��
2023/08/30,04:10,0.554,0.840,0.514,1.050,0.763,0.332,0.590,0.544,��,0.8,��
2023/08/30,04:20,0.556,0.841,0.513,1.048,0.762,0.330,0.588,0.544,��,1.2,��
2023/08/30,04:30,0.556,0.839,0.513,1.047,0.761,0.331,0.590,0.543,��,1.4,��
2023/08/30,04:40,0.554,0.839,0.514,1.050,0.759,0.330,0.590,0.543,���k��,1.4,��
2023/08/30,04:50,0.554,0.840,0.512,1.047,0.760,0.330,0.589,0.543,�k�k��,1.2,��
2023/08/30,05:00,0.553,0.840,0.512,1.046,0.760,0.328,0.591,0.543,�k��,1.1,��
2023/08/30,05:10,0.555,0.839,0.513,1.046,0.761,0.329,0.588,0.543,�k�k��,1.2,��
2023/08/30,05:20,0.554,0.840,0.514,1.048,0.760,0.329,0.588,0.544,�k�k��,1.2,��
2023/08/30,05:30,0.556,0.840,0.513,1.048,0.759,0.330,0.588,0.543,�k�k��,1.7,��
2023/08/30,05:40,0.555,0.840,0.513,1.047,0.761,0.329,0.589,0.543,���k��,1.2,��
2023/08/30,05:50,0.555,0.842,0.514,1.047,0.762,0.330,0.589,0.544,�k��,0.9,��
2023/08/30,06:00,0.555,0.842,0.514,1.046,0.760,0.329,0.589,0.543,��,0.9,��
2023/08/30,06:10,0.555,0.841,0.512,1.047,0.762,0.329,0.588,0.545,��,1.1,��
2023/08/30,06:20,0.555,0.841,0.512,1.048,0.760,0.329,0.588,0.544,��,1.2,��
2023/08/30,06:30,0.554,0.839,0.512,1.046,0.759,0.329,0.589,0.543,��,1.2,��
2023/08/30,06:40,0.556,0.841,0.513,1.045,0.760,0.330,0.589,0.544,���쐼,0.9,��
2023/08/30,06:50,0.555,0.841,0.513,1.046,0.758,0.331,0.589,0.543,�k�k��,0.8,��
2023/08/30,07:00,0.554,0.841,0.512,1.047,0.761,0.331,0.589,0.543,�k��,1.4,��
2023/08/30,07:10,0.556,0.838,0.514,1.047,0.759,0.331,0.589,0.543,�k�k��,1.2,��
2023/08/30,07:20,0.554,0.841,0.513,1.048,0.761,0.330,0.588,0.544,�k�k��,1.2,��
2023/08/30,07:30,0.554,0.839,0.513,1.046,0.762,0.330,0.589,0.544,���k��,0.9,��
2023/08/30,07:40,0.556,0.840,0.513,1.048,0.761,0.330,0.589,0.544,���쓌,2.0,��
2023/08/30,07:50,0.555,0.841,0.512,1.048,0.761,0.330,0.589,0.543,�쓌,2.6,��
2023/08/30,08:00,0.556,0.838,0.512,1.047,0.760,0.330,0.589,0.544,�쓌,3.0,��
2023/08/30,08:10,0.554,0.839,0.512,1.046,0.758,0.330,0.587,0.544,�쓌,2.3,��
2023/08/30,08:20,0.554,0.842,0.513,1.046,0.760,0.328,0.589,0.545,���쓌,3.2,��
2023/08/30,08:30,0.553,0.838,0.513,1.046,0.761,0.329,0.589,0.544,�쓌,3.0,��
2023/08/30,08:40,0.554,0.841,0.511,1.048,0.760,0.329,0.589,0.543,�쓌,3.4,��
2023/08/30,08:50,0.554,0.839,0.512,1.045,0.760,0.328,0.590,0.544,��쓌,2.5,��
2023/08/30,09:00,0.553,0.837,0.512,1.046,0.760,0.328,0.589,0.542,�쓌,2.6,��
2023/08/30,09:10,0.554,0.837,0.511,1.047,0.759,0.328,0.591,0.543,�쓌,3.2,��
2023/08/30,09:20,0.554,0.839,0.504,1.045,0.759,0.327,0.590,0.541,��쓌,4.9,��
2023/08/30,09:30,0.553,0.837,0.506,1.044,0.759,0.327,0.590,0.542,��쓌,6.1,��
2023/08/30,09:40,0.555,0.838,0.513,1.045,0.758,0.328,0.589,0.541,��쓌,6.7,��
2023/08/30,09:50,0.554,0.838,0.512,1.043,0.762,0.326,0.587,0.540,��쓌,8.5,��
2023/08/30,10:00,0.555,0.837,0.514,1.046,0.757,0.328,0.588,0.543,��쓌,8.9,��
2023/08/30,10:10,0.552,0.838,0.512,1.044,0.760,0.329,0.588,0.541,��쓌,7.4,��
2023/08/30,10:20,0.552,0.838,0.512,1.046,0.759,0.329,0.587,0.541,��쓌,9.3,��
2023/08/30,10:30,0.555,0.837,0.511,1.046,0.760,0.328,0.588,0.542,��쓌,9.0,��
2023/08/30,10:40,0.556,0.839,0.512,1.047,0.760,0.326,0.588,0.541,��쓌,8.4,��
2023/08/30,10:50,0.556,0.840,0.512,1.048,0.757,0.328,0.591,0.541,��쓌,7.8,��
2023/08/30,11:00,0.555,0.838,0.510,1.046,0.750,0.327,0.588,0.542,��쓌,8.4,��
2023/08/30,11:10,0.554,0.840,0.512,1.046,0.754,0.328,0.588,0.542,��쓌,9.9,��
2023/08/30,11:20,0.555,0.838,0.512,1.044,0.761,0.328,0.587,0.543,��쓌,9.8,��
2023/08/30,11:30,0.556,0.840,0.512,1.048,0.761,0.329,0.588,0.544,��쓌,9.1,��
2023/08/30,11:40,0.556,0.840,0.513,1.048,0.760,0.327,0.589,0.542,��쓌,9.5,��
2023/08/30,11:50,0.556,0.839,0.511,1.049,0.761,0.328,0.588,0.543,��쓌,10.5,��
2023/08/30,12:00,0.556,0.840,0.513,1.049,0.761,0.328,0.588,0.542,��쓌,9.8,��
2023/08/30,12:10,0.554,0.840,0.513,1.048,0.760,0.328,0.589,0.543,��쓌,8.8,��
2023/08/30,12:20,0.554,0.840,0.512,1.049,0.762,0.327,0.588,0.542,��쓌,9.5,��
2023/08/30,12:30,0.555,0.839,0.514,1.046,0.762,0.328,0.589,0.543,��쓌,8.3,��
2023/08/30,12:40,0.554,0.841,0.514,1.046,0.762,0.328,0.589,0.543,��쓌,9.3,��
2023/08/30,12:50,0.554,0.841,0.513,1.049,0.761,0.328,0.589,0.544,��쓌,10.7,��
2023/08/30,13:00,0.556,0.840,0.511,1.046,0.763,0.328,0.591,0.544,��쓌,9.6,��
2023/08/30,13:10,0.555,0.841,0.513,1.049,0.761,0.327,0.591,0.544,��쓌,10.5,��
2023/08/30,13:20,0.556,0.841,0.514,1.048,0.761,0.327,0.591,0.544,��쓌,11.4,��
2023/08/30,13:30,0.554,0.840,0.513,1.048,0.761,0.329,0.592,0.545,��쓌,10.9,��
2023/08/30,13:40,0.554,0.840,0.512,1.049,0.761,0.328,0.590,0.544,��쓌,9.7,��
2023/08/30,13:50,0.555,0.841,0.514,1.048,0.762,0.328,0.589,0.545,��쓌,9.9,��
2023/08/30,14:00,0.555,0.840,0.513,1.049,0.761,0.327,0.590,0.544,��쓌,9.8,��
2023/08/30,14:10,0.556,0.839,0.513,1.048,0.761,0.327,0.589,0.546,��쓌,9.6,��
2023/08/30,14:20,0.556,0.840,0.512,1.048,0.760,0.328,0.590,0.544,��쓌,9.3,��
2023/08/30,14:30,0.556,0.841,0.513,1.049,0.761,0.328,0.592,0.543,��쓌,10.6,��
2023/08/30,14:40,0.554,0.841,0.512,1.050,0.760,0.328,0.588,0.542,��쓌,12.7,��
2023/08/30,14:50,0.557,0.842,0.512,1.049,0.760,0.329,0.591,0.545,��쓌,11.0,��
2023/08/30,15:00,0.556,0.840,0.513,1.049,0.760,0.326,0.590,0.543,��쓌,11.0,��
2023/08/30,15:10,0.555,0.840,0.513,1.049,0.761,0.327,0.589,0.543,��쓌,11.7,��
2023/08/30,15:20,0.555,0.839,0.512,1.050,0.759,0.329,0.590,0.541,��쓌,11.6,��
2023/08/30,15:30,0.555,0.841,0.512,1.047,0.761,0.328,0.590,0.543,��쓌,13.3,��
2023/08/30,15:40,0.556,0.841,0.511,1.045,0.763,0.329,0.588,0.541,��쓌,11.7,��
2023/08/30,15:50,0.555,0.841,0.513,1.047,0.761,0.328,0.587,0.542,��쓌,12.4,��
2023/08/30,16:00,0.556,0.841,0.513,1.045,0.760,0.328,0.588,0.542,��,11.3,��
2023/08/30,16:10,0.554,0.840,0.513,1.048,0.762,0.327,0.589,0.542,��쓌,13.1,��
2023/08/30,16:20,0.555,0.841,0.513,1.046,0.762,0.328,0.590,0.542,��쓌,11.6,��
2023/08/30,16:30,0.553,0.841,0.512,1.049,0.762,0.328,0.590,0.543,��쓌,11.8,��
2023/08/30,16:40,0.555,0.838,0.510,1.051,0.760,0.328,0.587,0.544,��쓌,12.4,��
2023/08/30,16:50,0.555,0.841,0.514,1.048,0.761,0.329,0.590,0.542,��쓌,11.1,��
2023/08/30,17:00,0.554,0.840,0.512,1.049,0.762,0.328,0.588,0.543,��쓌,9.8,��
2023/08/30,17:10,0.555,0.841,0.513,1.050,0.760,0.327,0.589,0.543,��쓌,10.2,��
2023/08/30,17:20,0.555,0.840,0.513,1.049,0.760,0.327,0.588,0.542,��쓌,10.2,��
2023/08/30,17:30,0.555,0.839,0.513,1.051,0.762,0.329,0.588,0.543,��쓌,9.7,��
2023/08/30,17:40,0.556,0.840,0.513,1.046,0.761,0.328,0.588,0.544,��쓌,9.1,��
2023/08/30,17:50,0.556,0.842,0.514,1.047,0.761,0.330,0.589,0.542,��쓌,8.6,��
2023/08/30,18:00,0.555,0.843,0.514,1.047,0.764,0.329,0.588,0.542,��,8.2,��
2023/08/30,18:10,0.555,0.841,0.513,1.045,0.760,0.328,0.588,0.543,��,7.3,��
2023/08/30,18:20,0.556,0.840,0.513,1.050,0.762,0.329,0.589,0.544,��,5.5,��
2023/08/30,18:30,0.555,0.837,0.513,1.050,0.761,0.328,0.589,0.543,��,6.4,��
2023/08/30,18:40,0.556,0.841,0.513,1.046,0.761,0.330,0.589,0.542,��,5.0,��
2023/08/30,18:50,0.556,0.841,0.513,1.046,0.761,0.330,0.589,0.542,��,5.6,��
2023/08/30,19:00,0.555,0.842,0.514,1.048,0.760,0.327,0.590,0.544,��,5.8,��
2023/08/30,19:10,0.557,0.842,0.513,1.049,0.761,0.329,0.589,0.543,��,6.0,��
2023/08/30,19:20,0.557,0.842,0.513,1.046,0.762,0.329,0.589,0.544,��,5.3,��
2023/08/30,19:30,0.556,0.842,0.512,1.046,0.763,0.329,0.590,0.543,��,4.9,��
2023/08/30,19:40,0.556,0.841,0.514,1.047,0.761,0.329,0.589,0.544,��,4.9,��
2023/08/30,19:50,0.556,0.839,0.514,1.048,0.761,0.330,0.590,0.543,��,5.4,��
2023/08/30,20:00,0.558,0.842,0.514,1.048,0.762,0.329,0.588,0.543,��,6.6,��
2023/08/30,20:10,0.556,0.842,0.514,1.048,0.762,0.330,0.590,0.544,��,5.8,��
2023/08/30,20:20,0.554,0.842,0.514,1.047,0.762,0.329,0.589,0.543,��,5.2,��
2023/08/30,20:30,0.555,0.842,0.514,1.049,0.764,0.329,0.589,0.543,��,3.4,��
2023/08/30,20:40,0.555,0.841,0.514,1.048,0.762,0.329,0.589,0.542,��,3.8,��
2023/08/30,20:50,0.556,0.843,0.514,1.052,0.764,0.329,0.588,0.543,��,3.4,��
2023/08/30,21:00,0.556,0.840,0.515,1.046,0.763,0.329,0.589,0.545,��,3.7,��
2023/08/30,21:10,0.556,0.842,0.515,1.049,0.764,0.330,0.590,0.543,��,3.9,��
2023/08/30,21:20,0.555,0.842,0.514,1.049,0.764,0.329,0.590,0.545,��,4.1,��
2023/08/30,21:30,0.554,0.841,0.515,1.047,0.761,0.330,0.590,0.544,��,3.7,��
2023/08/30,21:40,0.554,0.842,0.514,1.048,0.762,0.331,0.590,0.544,��,4.1,��
2023/08/30,21:50,0.554,0.841,0.514,1.049,0.761,0.329,0.590,0.543,��,4.0,��
2023/08/30,22:00,0.554,0.841,0.512,1.047,0.760,0.330,0.590,0.544,��쓌,3.4,��
2023/08/30,22:10,0.558,0.842,0.514,1.049,0.762,0.330,0.589,0.543,��쓌,3.6,��
2023/08/30,22:20,0.555,0.840,0.514,1.049,0.761,0.330,0.589,0.542,��쓌,4.0,��
2023/08/30,22:30,0.553,0.839,0.513,1.048,0.759,0.330,0.590,0.544,��쓌,4.5,��
2023/08/30,22:40,0.556,0.841,0.512,1.047,0.764,0.329,0.588,0.543,��,4.8,��
2023/08/30,22:50,0.555,0.843,0.513,1.047,0.763,0.331,0.589,0.543,��,4.5,��
2023/08/30,23:00,0.555,0.839,0.513,1.049,0.761,0.329,0.589,0.544,��,3.8,��
2023/08/30,23:10,0.555,0.839,0.513,1.045,0.762,0.329,0.589,0.543,��,3.1,��
2023/08/30,23:20,0.556,0.840,0.513,1.047,0.763,0.329,0.590,0.543,��,2.6,��
2023/08/30,23:30,0.556,0.841,0.513,1.049,0.762,0.331,0.590,0.544,��쐼,2.0,��
2023/08/30,23:40,0.556,0.842,0.514,1.049,0.762,0.330,0.589,0.543,��,1.9,��
2023/08/30,23:50,0.553,0.839,0.514,1.049,0.763,0.329,0.589,0.542,��쐼,1.1,��
